Content
SEND FEEDBACK

Daily
Averages
Monthly
Summary
United States of America

PLEASANT HILL, ILLINOIS


Home > North America > United States > Illinois
Elevation: 540 feet     Latitude: 39 27N     Longitude: 090 50W

WEATHER
 
SELECT A DAY
Number of Records: 318,928;   Date Range: 7/17/01 - 8/12/14
 
SHARE

PRINT THIS DATA

[ ← Previous Day ]
WEATHER ALMANAC - JANUARY 31, 2013
[ Next Day → ]
[ °C ]   °F
Weather ElementAverageHighLow
Temperature20.7 °F26.6 °F (12:55 am)9.1 °F (11:55 pm)
Dewpoint9.4 °F18.1 °F (5:15 am)-2.7 °F (8:35 pm)
Humidity61.8 %70 % (4:55 am)54 % (10:55 am)
Barometer30.07 in30.38 in (11:35 pm)29.89 in (12:35 am)
Wind Speed14.2 mph17.3 mph (2:35 am)
Wind Gust25.3 mph (4:15 am)
Weather ElementAverage
Visibility10 mi
Wind DirectionSE (131.8 °)

Weather ElementTotal
Precipitation---
Heating Degree Days47.2 (Base 65)
Averaged from 71 records on January 31, 2013
WEATHER CONDITIONS BREAKOUT
WIND DIRECTION BREAKOUT
WEATHER BY HOUR - JANUARY 31, 2013
[ °C ]   °F
Local TimeTemperatureDewpointHumidityBarometerVisibilityWind DirectionWind SpeedGust SpeedPrecipitationEventsConditions
12:35 AM26.4 °F16.0 °F65 %29.89 in10.0 miNorth (360°)13.8 mphOvercast
12:55 AM26.6 °F14.7 °F61 %29.89 in10.0 miNorth (360°)15.0 mph18.4 mphOvercast
1:15 AM26.6 °F15.1 °F62 %29.90 in10.0 miNorth (360°)13.8 mph19.6 mphOvercast
1:35 AM26.1 °F16.0 °F66 %29.90 in10.0 miNorth (360°)12.7 mph21.9 mphOvercast
1:55 AM26.1 °F15.6 °F65 %29.90 in10.0 miNorth (360°)12.7 mphOvercast
2:15 AM26.4 °F15.1 °F62 %29.90 in10.0 miNorth (360°)13.8 mph21.9 mphOvercast
2:35 AM26.4 °F15.8 °F64 %29.90 in10.0 miNorth (360°)17.3 mph21.9 mphOvercast
2:55 AM26.4 °F15.8 °F64 %29.90 in10.0 miNorth (360°)12.7 mph20.7 mphOvercast
3:15 AM26.6 °F15.4 °F63 %29.90 in10.0 miNorth (360°)13.8 mph18.4 mphOvercast
3:35 AM26.6 °F15.3 °F62 %29.89 in10.0 miNorth (360°)13.8 mph20.7 mphOvercast
3:55 AM26.6 °F15.8 °F64 %29.89 in10.0 miNorth (360°)11.5 mph18.4 mphOvercast
4:15 AM26.6 °F16.7 °F66 %29.89 in10.0 miNorth (360°)16.1 mph25.3 mphOvercast
4:35 AM26.6 °F17.6 °F69 %29.89 in10.0 miNorth (360°)15.0 mph25.3 mphOvercast
4:55 AM26.6 °F18.0 °F70 %29.89 in10.0 miNorth (360°)13.8 mph23.0 mphOvercast
5:15 AM26.6 °F18.1 °F70 %29.90 in10.0 miNorth (360°)11.5 mph19.6 mphOvercast
5:35 AM26.6 °F18.0 °F70 %29.90 in10.0 miNorth (360°)16.1 mph20.7 mphOvercast
5:55 AM26.6 °F17.8 °F69 %29.91 in10.0 miNorth (360°)13.8 mph21.9 mphSnowLight Snow
6:15 AM26.4 °F17.8 °F70 %29.91 in10.0 miNorth (360°)15.0 mph23.0 mphOvercast
6:35 AM26.4 °F18.0 °F70 %29.92 in10.0 miNorth (360°)15.0 mph18.4 mphOvercast
6:55 AM26.1 °F16.2 °F66 %29.92 in10.0 miNorth (360°)15.0 mph25.3 mphOvercast
7:15 AM25.5 °F15.6 °F66 %29.94 in10.0 miNorth (360°)13.8 mph25.3 mphOvercast
7:35 AM25.2 °F15.3 °F66 %29.94 in10.0 miNorth (360°)15.0 mph23.0 mphOvercast
7:55 AM25.2 °F14.9 °F65 %29.95 in10.0 miNorth (360°)12.7 mph20.7 mphOvercast
8:15 AM25.0 °F14.2 °F64 %29.96 in10.0 miNorth (360°)15.0 mph21.9 mphOvercast
8:35 AM24.6 °F14.2 °F65 %29.97 in10.0 miNorth (360°)16.1 mph24.2 mphOvercast
8:55 AM24.8 °F14.4 °F65 %29.98 inNorth (360°)13.8 mph18.4 mph
9:15 AM25.0 °F14.7 °F65 %29.98 in10.0 miNorthOvercast
9:35 AM24.6 °F15.3 °F68 %30.00 in10.0 miNorthOvercast
9:55 AM24.6 °F14.4 °F65 %30.01 in10.0 miNorthOvercast
10:15 AM25.0 °F13.8 °F63 %30.02 in10.0 miNorthOvercast
10:35 AM25.2 °F11.8 °F57 %30.03 in10.0 miNorthMostly Cloudy
10:55 AM25.3 °F10.8 °F54 %30.03 in10.0 miNorthMostly Cloudy
11:15 AM25.2 °F11.8 °F57 %30.02 in10.0 miNorthScattered Clouds
11:35 AM25.5 °F12.6 °F58 %30.03 in10.0 miNorthScattered Clouds
11:55 AM24.8 °F12.7 °F60 %30.03 in10.0 miNorthScattered Clouds
12:15 PM25.0 °F13.1 °F61 %30.02 in10.0 miNorthScattered Clouds
12:35 PM25.0 °F11.5 °F57 %30.03 in10.0 miNorthMostly Cloudy
12:55 PM24.1 °F11.5 °F59 %30.03 in10.0 miNorthMostly Cloudy
1:15 PM23.5 °F10.9 °F59 %30.03 in10.0 miNorthMostly Cloudy
1:35 PM22.8 °F9.0 °F55 %30.04 in10.0 miNorthMostly Cloudy
1:55 PM21.9 °F8.1 °F55 %30.05 in10.0 miNorthMostly Cloudy
2:15 PM21.7 °F8.2 °F56 %30.06 in10.0 miNorthMostly Cloudy
2:35 PM21.6 °F8.4 °F57 %30.08 in10.0 miNorthMostly Cloudy
2:55 PM20.5 °F8.8 °F61 %30.10 in10.0 miNorthOvercast
3:15 PM19.4 °F7.0 °F59 %30.11 in10.0 miNorthOvercast
3:35 PM18.9 °F8.6 °F64 %30.12 in10.0 miNorthOvercast
3:55 PM17.8 °F6.3 °F61 %30.14 in10.0 miNorthMostly Cloudy
4:15 PM17.6 °F6.3 °F61 %30.16 in10.0 miNorthMostly Cloudy
4:35 PM16.9 °F4.3 °F58 %30.16 in10.0 miNorthMostly Cloudy
4:55 PM16.2 °F4.1 °F59 %30.17 in10.0 miNorthScattered Clouds
5:15 PM16.2 °F5.4 °F62 %30.18 in10.0 miNorthScattered Clouds
5:35 PM15.8 °F4.6 °F61 %30.19 in10.0 miNorthMostly Cloudy
5:55 PM16.0 °F3.9 °F59 %30.20 in10.0 miNorthMostly Cloudy
6:15 PM15.8 °F4.1 °F60 %30.21 in10.0 miNorthOvercast
6:35 PM14.9 °F1.4 °F55 %30.23 in10.0 miNorthMostly Cloudy
6:55 PM14.0 °F1.8 °F58 %30.23 in10.0 miNorthMostly Cloudy
7:15 PM13.3 °F1.9 °F61 %30.25 in10.0 miNorthMostly Cloudy
7:35 PM12.2 °F-1.1 °F55 %30.26 in10.0 miNorthMostly Cloudy
7:55 PM12.2 °F-0.4 °F57 %30.28 in10.0 miNorthScattered Clouds
8:15 PM11.3 °F-1.1 °F57 %30.28 in10.0 miNorthMostly Cloudy
8:35 PM10.9 °F-2.7 °F54 %30.30 in10.0 miNorthScattered Clouds
8:55 PM10.8 °F0.0 °F62 %30.31 in10.0 miNorthMostly Cloudy
9:15 PM10.4 °F-0.8 °F61 %30.32 in10.0 miNorthMostly Cloudy
9:35 PM10.2 °F0.3 °F64 %30.33 in10.0 miNorthOvercast
9:55 PM9.9 °F-0.9 °F62 %30.33 in10.0 miNorthOvercast
10:15 PM9.9 °F-1.8 °F59 %30.34 in10.0 miNorthMostly Cloudy
10:35 PM9.5 °F-1.5 °F61 %30.35 in10.0 miNorthScattered Clouds
10:55 PM9.5 °F-2.2 °F59 %30.36 in10.0 miNorthScattered Clouds
11:15 PM9.3 °F-2.2 °F60 %30.37 in10.0 miNorthScattered Clouds
11:35 PM9.3 °F-1.3 °F62 %30.38 in10.0 miNorthScattered Clouds
11:55 PM9.1 °F-2.2 °F60 %30.38 in10.0 miNorthScattered Clouds
Hourly data recorded from KPPQ, located miles away from Pleasant Hill, Illinois







STORIES FROM OUR PARTNERS